Voltar ao catálogo

FENGYUN 1C DEB

AtivoPO
NORAD 31053·DEBRIS·🇨🇳 China

Lançado May 10, 1999 de Taiyuan Satellite Launch Center

Loading…

Próximas Passagens (próximas 24 horas)

TLE

AtualizadoSource: Space-Track

Época: Sep 13, 2026, 06:23 UTC

1 31053U 99025BEX 26256.26608605  .00001107  00000-0  82179-3 0  9990
2 31053  98.8160   3.7318 0305921  80.1725 283.3821 13.76959288972532

Acompanhe FENGYUN 1C DEB em tempo real com AllMySat

Download on the App Store